This is the latest recevied weather packets stored in our database for station/object N3WMC. If no packets are shown the sender has not sent any weather packets the latest 10 day(s).
| Time | Temp. | Humidity | Pressure | Rain* | Wind** | Luminosity | Snow |
|---|---|---|---|---|---|---|---|
| 1777404489 | 17.22° C | 82% | 1014.9 hPa | 0 mm | - | 414 W/m² | - |
| 1777404184 | 17.22° C | 82% | 1015.1 hPa | 0 mm | - | 92 W/m² | - |
| 1777403881 | 17.22° C | 82% | 1015.2 hPa | 0 mm | - | 90 W/m² | - |
| 1777403575 | 17.22° C | 83% | 1015.2 hPa | 0 mm | - | 68 W/m² | - |
| 1777403275 | 17.22° C | 82% | 1015.3 hPa | 0 mm | - | 54 W/m² | - |
| 1777402975 | 16.67° C | 82% | 1015.3 hPa | 0 mm | - | 54 W/m² | - |
| 1777402671 | 16.67° C | 82% | 1015 hPa | 0 mm | - | 68 W/m² | - |
| 1777402370 | 16.67° C | 83% | 1015.1 hPa | 0 mm | - | 88 W/m² | - |
| 1777402069 | 16.67° C | 83% | 1015.2 hPa | 0 mm | - | 76 W/m² | - |
| 1777401764 | 16.67° C | 82% | 1015.2 hPa | 0 mm | - | 107 W/m² | - |
| 1777401459 | 16.67° C | 83% | 1015.2 hPa | 0 mm | - | 178 W/m² | - |
| 1777401155 | 16.11° C | 83% | 1015 hPa | 0 mm | - | 120 W/m² | - |
| 1777400851 | 16.67° C | 83% | 1015.2 hPa | 0 mm | - | 126 W/m² | - |
| 1777400547 | 16.11° C | 83% | 1015 hPa | 0 mm | - | 215 W/m² | - |
| 1777400245 | 16.11° C | 83% | 1015.1 hPa | 0 mm | - | 126 W/m² | - |
| 1777399941 | 16.11° C | 83% | 1015.1 hPa | 0 mm | - | 120 W/m² | - |
| 1777399638 | 16.11° C | 83% | 1015 hPa | 0 mm | - | 119 W/m² | - |
| 1777399335 | 16.11° C | 83% | 1015.1 hPa | 0 mm | - | 141 W/m² | - |
| 1777399033 | 16.11° C | 82% | 1015.1 hPa | 0 mm | - | 133 W/m² | - |
| 1777398729 | 16.11° C | 83% | 1015.2 hPa | 0 mm | - | 154 W/m² | - |
| 1777398426 | 15.56° C | 83% | 1015.2 hPa | 0 mm | - | 112 W/m² | - |
| 1777398123 | 15.56° C | 83% | 1015.4 hPa | 0 mm | - | 107 W/m² | - |
| 1777397820 | 15.56° C | 83% | 1015.1 hPa | 0 mm | - | 98 W/m² | - |
| 1777397515 | 15.56° C | 83% | 1015.3 hPa | 0 mm | - | 99 W/m² | - |
| 1777397211 | 15.56° C | 83% | 1015.2 hPa | 0 mm | - | 118 W/m² | - |
* Rain latest hour (hover to see other rain measurements)
** Current wind speed in m/s (hover to see current wind gust speed)